Tracking 29892 objects as of 21-Nov-2024
HD Live streaming from Space Station
objects crossing your sky now

FENGYUN 1C DEB

Track FENGYUN 1C DEB now!
10-day predictions


NORAD ID: 33630
Int'l Code: 1999-025DDP
Perigee: 745.9 km
Apogee: 942.4 km
Inclination: 98.6 °
Period: 101.7 minutes
Semi major axis: 7215 km
RCS: 0.0057 m2 (small)
Launch date: May 10, 1999
Source: People's Republic of China (PRC)
Launch site: Taiyaun Space Center, China (TSC)

Note: This is SATELLITE DEBRIS
Your satellite tracking list
Your tracking list is empty




NASA's NSSDC Master Catalog

Two Line Element Set (TLE):
1 33630U 99025DDP 24320.55243337  .00002416  00000-0  11258-2 0  9995
2 33630  98.5919  73.2099 0136148 116.5957 244.9242 14.16556416588563
Source of the keplerian elements: AFSPC